Flag for U.S.A. Weather past 2 weeks in Lubbock, Texas, U.S.A.

Now
54 °F

Passing clouds.


Feels Like: 49 °F
Forecast: 34 / 57 °F
Wind: 17 mph from Northeast

Location: Lubbock International Airport

Current Time: Jan 25, 2015 at 12:38:48 PM

Latest Report: Jan 25, 2015 at 11:53 AM


Visibility: 10 mi

Pressure: 30.21 "Hg

Humidity: 33%

Dew point: 25 °F

Location of LubbockLocation

Historic Weather in Lubbock — Graph

°F

Lubbock temperature yesterday

Maximum temperature yesterday: 54 °F (at 3:53 PM)
Minimum temperature yesterday: 29 °F (at 12:53 AM)
Average temperature yesterday: 39 °F

Past Weeks' High & Low Weather Summary

 TemperatureHumidityPressure
High72 °F (Jan 19, 3:53 PM)100% (Jan 12, 2:53 AM)30.50 "Hg (Jan 12, 2:53 AM)
Low17 °F (Jan 23, 7:53 AM)13% (Jan 18, 12:53 PM)29.83 "Hg (Jan 20, 4:53 AM)
Average39 °F65%30.18 "Hg
* Reported Jan 10 10:53 AM — Jan 25 10:53 AM, Lubbock, Weather by CustomWeather, © 2014

Note: Actual official high and low records may vary slightly from our data, if they occured in-between our weather recording intervals... More about our weather records

Advertising

Lubbock weather history for previous 24 hours

 ConditionsComfort  
Time TempWeatherWind HumidityBarometerVisibility
10:53 AM
Jan 25
51 °FPassing clouds.15 mph41%30.20 "Hg10 mi
9:53 AM46 °FPassing clouds.6 mph51%30.20 "Hg10 mi
8:53 AM37 °FPassing clouds.7 mph73%30.19 "Hg10 mi
7:53 AM32 °FPassing clouds.7 mph85%30.17 "Hg10 mi
6:53 AM32 °FPassing clouds.9 mph85%30.14 "Hg10 mi
5:53 AM33 °FPassing clouds.9 mph82%30.10 "Hg10 mi
4:53 AM36 °FClear.10 mph75%30.09 "Hg10 mi
3:53 AM34 °FClear.9 mph79%30.07 "Hg10 mi
2:53 AM35 °FPassing clouds.13 mph78%30.06 "Hg10 mi
1:53 AM36 °FPassing clouds.13 mph75%30.03 "Hg10 mi
12:53 AM36 °FPassing clouds.14 mph75%30.04 "Hg10 mi
11:53 PM
Jan 24
36 °FPassing clouds.13 mph79%30.03 "Hg10 mi
10:53 PM36 °FClear.12 mph79%30.02 "Hg10 mi
9:53 PM37 °FClear.12 mph79%30.01 "Hg10 mi
8:53 PM41 °FClear.13 mph70%30.01 "Hg10 mi
7:53 PM43 °FPassing clouds.12 mph71%30.01 "Hg10 mi
6:53 PM44 °FPassing clouds.6 mph73%30.01 "Hg10 mi
5:53 PM50 °FPassing clouds.6 mph61%30.01 "Hg10 mi
4:53 PM53 °FScattered clouds.7 mph51%30.02 "Hg10 mi
3:53 PM54 °FScattered clouds.14 mph45%30.04 "Hg10 mi
2:53 PM52 °FScattered clouds.13 mph45%30.09 "Hg10 mi
1:53 PM51 °FScattered clouds.14 mph50%30.13 "Hg10 mi
12:53 PM48 °FScattered clouds.10 mph52%30.18 "Hg10 mi
Weather by CustomWeather, © 2014

See weather overviewHow to use our weather pages